Landsat 5 - Orbit

View from above orbital plane
View from above orbital plane
View from above satellite
View from above satellite

Ground track
Ground track

The orbit data is extracted from the following two-line orbital elements,

1 14780U 84021A   13168.54216770  .00000669  00000-0  75064-4 0  9982
2 14780 098.0951 234.2747 0097413 285.6591 073.3896 14.87189815558403
Epoch (UTC): 17 June 2013 13:00:43
Eccentricity: 0.0097413
inclination: 98.0951°
perigee height: 538 km
apogee height: 675 km
right ascension of ascending node: 234.2747°
argument of perigee: 285.6591°
revolutions per day: 14.87189815
mean anomaly at epoch: 73.3896°
orbit number at epoch: 55840

The dashed part of the orbit path shows where the satellite is in the earth's shadow,  

Developed and maintained by Chris Peat, Heavens-Above GmbH. Please read the updated FAQ before sending e-mail. Imprint. DLR